FW9116 Weather Reports


time (UTC)temp
C
wind
direction
speed
KPH
gust
KPH
rain 1hr
cm
rain 24hr
cm
rain mn
cm
humidity
%
barometer
mb
20260506002553 16 248 0.0 4.8 0.00 0.00 0.00 73 1014.8
20260506002053 16 0 0.0 4.8 0.00 0.00 0.00 73 1014.9
20260506001558 17 0 1.6 4.8 0.00 0.00 0.00 72 1015.0
20260506001053 17 13 0.0 4.8 0.00 0.00 0.00 72 1015.1
20260506000557 17 0 0.0 4.8 0.00 0.00 0.00 73 1015.1
20260506000057 16 24 0.0 3.2 0.00 0.00 0.00 74 1015.0
20260505235556 17 300 0.0 6.4 0.00 0.00 0.00 74 1015.0
20260505235054 17 0 0.0 6.4 0.00 0.00 0.00 73 1015.2
20260505234637 17 0 0.0 6.4 0.00 0.00 0.00 73 1015.2
20260505234059 17 5 1.6 6.4 0.00 0.00 0.00 73 1015.2
20260505233557 17 57 1.6 6.4 0.00 0.00 0.00 72 1015.2
20260505233105 17 5 1.6 6.4 0.00 0.00 0.00 72 1015.2
20260505232556 17 5 0.0 4.8 0.00 0.00 0.00 73 1015.3
20260505232053 17 299 1.6 4.8 0.00 0.00 0.00 73 1015.2
20260505231557 17 13 1.6 4.8 0.00 0.00 0.00 72 1015.3
20260505231058 17 0 0.0 4.8 0.00 0.00 0.00 72 1015.3
20260505230557 17 14 0.0 4.8 0.00 0.00 0.00 72 1015.3
20260505230057 17 325 1.6 6.4 0.00 0.00 0.00 73 1015.2
20260505225553 17 232 1.6 6.4 0.00 0.00 0.00 72 1015.3
20260505225053 17 0 0.0 4.8 0.00 0.00 0.00 72 1015.3
20260505224556 17 5 0.0 4.8 0.00 0.00 0.00 70 1015.3
20260505224056 17 300 1.6 4.8 0.00 0.00 0.00 72 1015.4
20260505223557 17 5 0.0 4.8 0.00 0.00 0.00 71 1015.4
20260505223055 17 5 0.0 3.2 0.00 0.00 0.00 72 1015.4
20260505222556 17 0 0.0 3.2 0.00 0.00 0.00 72 1015.5
20260505222055 16 360 1.6 4.8 0.00 0.00 0.00 73 1015.5
20260505221555 16 271 0.0 4.8 0.00 0.00 0.00 73 1015.5
20260505221055 17 14 0.0 3.2 0.00 0.00 0.00 73 1015.5
20260505220555 16 0 0.0 4.8 0.00 0.00 0.00 74 1015.5
20260505220105 16 13 1.6 4.8 0.00 0.00 0.00 74 1015.6
20260505215556 16 285 1.6 4.8 0.00 0.00 0.00 74 1015.6
20260505215053 16 0 0.0 4.8 0.00 0.00 0.00 74 1015.5
20260505214603 16 224 1.6 6.4 0.00 0.00 0.00 73 1015.6
20260505214054 16 226 1.6 6.4 0.00 0.00 0.00 73 1015.6
20260505213557 16 232 1.6 6.4 0.00 0.00 0.00 73 1015.6
20260505213102 16 221 0.0 3.2 0.00 0.00 0.00 74 1015.6
20260505212557 16 0 0.0 8.0 0.00 0.00 0.00 73 1015.7
20260505212055 16 175 1.6 8.0 0.00 0.00 0.00 73 1015.6
20260505211602 16 0 1.6 8.0 0.00 0.00 0.00 73 1015.6
20260505211055 16 0 3.2 8.0 0.00 0.00 0.00 74 1015.7
20260505210553 16 0 1.6 4.8 0.00 0.00 0.00 72 1015.7
20260505210056 16 5 1.6 4.8 0.00 0.00 0.00 73 1015.7
20260505205556 16 188 0.0 6.4 0.00 0.00 0.00 73 1015.7
20260505205057 16 0 1.6 6.4 0.00 0.00 0.00 74 1015.7
20260505204609 16 171 1.6 9.7 0.00 0.00 0.00 73 1015.7
20260505204056 16 175 3.2 9.7 0.00 0.00 0.00 74 1015.8
20260505203553 16 0 0.0 4.8 0.00 0.00 0.00 75 1015.8
20260505203056 16 0 0.0 4.8 0.00 0.00 0.00 74 1015.8
20260505202553 16 237 1.6 4.8 0.00 0.00 0.00 75 1015.9
20260505202056 16 118 1.6 4.8 0.00 0.00 0.00 75 1015.9
20260505201554 16 187 1.6 4.8 0.00 0.00 0.00 76 1015.9
20260505201101 16 296 1.6 4.8 0.00 0.00 0.00 75 1015.9
20260505200555 15 0 1.6 4.8 0.00 0.00 0.00 77 1015.9
20260505200059 15 305 0.0 6.4 0.00 0.00 0.00 76 1016.0
20260505195557 15 265 3.2 9.7 0.00 0.00 0.00 75 1016.0
20260505195055 15 211 1.6 9.7 0.00 0.00 0.00 76 1015.9
20260505194555 15 293 4.8 9.7 0.00 0.00 0.00 75 1015.9
20260505194056 16 0 1.6 9.7 0.00 0.00 0.00 76 1016.0
20260505193555 15 286 1.6 9.7 0.00 0.00 0.00 75 1016.0
20260505193059 15 167 1.6 8.0 0.00 0.00 0.00 77 1016.0
20260505192555 15 109 1.6 9.7 0.00 0.00 0.00 75 1016.0
20260505192053 15 0 1.6 9.7 0.00 0.00 0.00 76 1016.0
20260505191558 16 159 1.6 6.4 0.00 0.00 0.00 76 1016.0
20260505191053 15 0 1.6 9.7 0.00 0.00 0.00 76 1016.0
20260505190555 15 155 3.2 9.7 0.00 0.00 0.00 79 1016.0
20260505190055 15 100 3.2 6.4 0.00 0.00 0.00 78 1015.9
20260505185556 15 0 0.0 4.8 0.00 0.00 0.00 78 1016.0
20260505185056 15 232 0.0 4.8 0.00 0.00 0.00 79 1016.1
20260505184602 15 144 1.6 6.4 0.00 0.00 0.00 78 1016.0
20260505184056 15 142 1.6 6.4 0.00 0.00 0.00 80 1016.1
20260505183554 14 0 0.0 6.4 0.00 0.00 0.00 80 1016.3
20260505183055 14 0 1.6 6.4 0.00 0.00 0.00 80 1016.3
20260505182555 14 0 0.0 4.8 0.00 0.00 0.00 80 1016.2
20260505182101 14 0 1.6 4.8 0.00 0.00 0.00 82 1016.2
20260505181559 13 0 1.6 4.8 0.00 0.00 0.00 81 1016.2
20260505181058 13 260 0.0 4.8 0.00 0.00 0.00 81 1016.2
20260505180557 13 310 0.0 4.8 0.00 0.00 0.00 83 1016.2
20260505180103 13 304 0.0 4.8 0.00 0.00 0.00 83 1016.3
20260505175553 13 292 0.0 6.4 0.00 0.00 0.00 83 1016.3
20260505175100 13 277 1.6 6.4 0.00 0.00 0.00 83 1016.3
20260505174610 13 273 1.6 4.8 0.00 0.00 0.00 83 1016.3
20260505174056 13 0 1.6 8.0 0.00 0.00 0.00 84 1016.2
20260505173553 13 0 1.6 9.7 0.00 0.00 0.00 84 1016.2
20260505173054 13 242 1.6 9.7 0.00 0.00 0.00 84 1016.1
20260505172559 12 267 3.2 9.7 0.00 0.00 0.00 85 1016.1
20260505172056 12 287 4.8 9.7 0.00 0.00 0.00 85 1016.0
20260505171556 13 300 4.8 9.7 0.00 0.00 0.00 84 1015.9
20260505171058 13 257 0.0 6.4 0.00 0.00 0.00 85 1015.9
20260505170554 13 254 1.6 6.4 0.00 0.00 0.00 85 1015.8
20260505170136 12 0 1.6 6.4 0.00 0.00 0.00 85 1015.8
20260505165553 13 198 1.6 6.4 0.00 0.00 0.00 85 1015.8
20260505165054 12 0 0.0 6.4 0.00 0.00 0.00 86 1015.8
20260505164558 12 244 3.2 8.0 0.00 0.00 0.00 85 1015.7
20260505164055 12 123 1.6 8.0 0.00 0.00 0.00 86 1015.6
20260505163556 12 0 3.2 6.4 0.00 0.00 0.00 86 1015.7
20260505163055 12 284 1.6 8.0 0.00 0.00 0.00 87 1015.7
20260505162556 12 0 1.6 8.0 0.00 0.00 0.00 87 1015.6
20260505162054 12 170 0.0 4.8 0.00 0.00 0.00 87 1015.7
20260505161602 12 170 0.0 4.8 0.00 0.00 0.00 87 1015.6
20260505161055 12 186 0.0 3.2 0.00 0.00 0.00 87 1015.5
20260505160559 12 0 0.0 6.4 0.00 0.00 0.00 87 1015.5
20260505153100 12 0 1.6 6.4 0.00 0.00 0.00 88 1015.6
20260505152556 12 0 3.2 6.4 0.00 0.00 0.00 87 1015.5
20260505152055 12 0 0.0 6.4 0.00 0.00 0.00 88 1015.5
20260505151556 12 173 1.6 9.7 0.00 0.00 0.00 87 1015.6
20260505151055 12 0 3.2 9.7 0.00 0.00 0.00 88 1015.5
20260505150557 12 183 1.6 9.7 0.00 0.00 0.00 88 1015.6
20260505140555 11 192 1.6 6.4 0.00 0.00 0.00 87 1015.1
20260505124557 11 0 0.0 6.4 0.00 0.00 0.00 87 1014.7
20260505124055 11 0 0.0 6.4 0.00 0.00 0.00 87 1014.7
20260505123556 11 0 1.6 6.4 0.00 0.00 0.00 87 1014.7
20260505123112 11 227 0.0 9.7 0.00 0.00 0.00 87 1014.6
20260505122557 11 0 0.0 9.7 0.00 0.00 0.00 87 1014.6
20260505122055 11 128 1.6 8.0 0.00 0.00 0.00 86 1014.7
20260505121556 11 157 1.6 4.8 0.00 0.00 0.00 87 1014.6
20260505121056 12 0 0.0 4.8 0.00 0.00 0.00 87 1014.6
20260505120552 11 182 1.6 6.4 0.00 0.00 0.00 87 1014.6
20260505120059 11 171 0.0 6.4 0.00 0.00 0.00 86 1014.5
20260505115559 11 0 0.0 4.8 0.00 0.00 0.00 87 1014.6
20260505115057 11 0 0.0 6.4 0.00 0.00 0.00 86 1014.6
20260505114614 11 0 1.6 6.4 0.00 0.00 0.00 86 1014.5
20260505114057 11 0 1.6 8.0 0.00 0.00 0.00 87 1014.5
20260505113558 11 0 1.6 8.0 0.00 0.00 0.00 86 1014.6
20260505113055 11 0 1.6 6.4 0.00 0.00 0.00 87 1014.4
20260505112559 11 245 0.0 6.4 0.00 0.00 0.00 86 1014.5
20260505112053 11 0 1.6 6.4 0.00 0.00 0.00 86 1014.4
20260505111607 11 173 1.6 6.4 0.00 0.00 0.00 87 1014.5
20260505111056 11 169 1.6 6.4 0.00 0.00 0.00 87 1014.4
20260505110554 11 204 0.0 8.0 0.00 0.00 0.00 87 1014.4
20260505102053 11 155 1.6 4.8 0.00 0.00 0.00 87 1014.1
20260505101607 11 157 0.0 4.8 0.00 0.00 0.00 87 1014.1
20260505101053 11 157 0.0 4.8 0.00 0.00 0.00 87 1014.1
20260505100557 11 157 0.0 3.2 0.00 0.00 0.00 87 1014.0
20260505100057 11 157 0.0 3.2 0.00 0.00 0.00 87 1014.2
20260505095556 11 0 0.0 3.2 0.00 0.00 0.00 87 1014.1
20260505095057 11 157 0.0 3.2 0.00 0.00 0.00 87 1014.1
20260505094600 11 0 0.0 6.4 0.00 0.00 0.00 87 1014.1
20260505094054 11 157 1.6 6.4 0.00 0.00 0.00 87 1014.0
20260505093557 11 163 0.0 4.8 0.00 0.00 0.00 87 1014.0
20260505093100 11 0 0.0 8.0 0.00 0.00 0.00 87 1014.0
20260505092554 11 150 0.0 8.0 0.00 0.00 0.00 86 1013.9
20260505092054 11 166 3.2 8.0 0.00 0.00 0.00 87 1013.9
20260505091558 11 0 1.6 8.0 0.00 0.00 0.00 86 1013.9
20260505091054 11 178 3.2 8.0 0.00 0.00 0.00 86 1013.8
20260505090553 11 0 3.2 8.0 0.00 0.00 0.00 86 1013.7
20260505090100 11 195 0.0 3.2 0.00 0.00 0.00 86 1013.7
20260505085556 11 0 0.0 3.2 0.00 0.00 0.00 86 1013.6
20260505085054 11 0 0.0 3.2 0.00 0.00 0.00 85 1013.5
20260505084555 12 0 0.0 4.8 0.00 0.00 0.00 85 1013.7
20260505084054 12 0 0.0 4.8 0.00 0.00 0.00 85 1013.6
20260505083554 12 0 0.0 6.4 0.00 0.00 0.00 84 1013.6
20260505083117 12 0 0.0 8.0 0.00 0.00 0.00 84 1013.7
20260505082555 12 0 1.6 8.0 0.00 0.00 0.00 84 1013.6
20260505082057 12 175 3.2 9.7 0.00 0.00 0.00 84 1013.6
20260505081602 12 201 1.6 9.7 0.00 0.00 0.00 84 1013.6
20260505081054 12 0 1.6 8.0 0.00 0.00 0.00 83 1013.5
20260505080553 12 178 3.2 8.0 0.00 0.00 0.00 84 1013.5
20260505080056 12 171 0.0 6.4 0.00 0.00 0.00 83 1013.5
20260505075554 12 164 0.0 6.4 0.00 0.00 0.00 83 1013.4
20260505075054 12 0 0.0 8.0 0.00 0.00 0.00 83 1013.4
20260505074554 12 0 1.6 8.0 0.00 0.00 0.00 83 1013.3
20260505074055 12 0 0.0 4.8 0.00 0.00 0.00 83 1013.2
20260505073556 12 0 0.0 4.8 0.00 0.00 0.00 82 1013.1
20260505073105 12 0 1.6 4.8 0.00 0.00 0.00 82 1012.9
20260505072554 13 0 0.0 6.4 0.00 0.00 0.00 82 1012.9
20260505072054 13 164 1.6 12.9 0.00 0.00 0.00 82 1012.9
20260505071554 13 231 1.6 12.9 0.00 0.00 0.00 82 1012.7
20260505071054 13 0 1.6 8.0 0.00 0.00 0.00 82 1012.8
20260505070554 13 153 0.0 11.3 0.00 0.00 0.00 82 1012.7
20260505070058 13 0 1.6 11.3 0.00 0.00 0.00 82 1012.7
20260505065553 13 186 0.0 6.4 0.00 0.00 0.00 82 1012.7
20260505065057 13 219 1.6 12.9 0.00 0.00 0.00 81 1012.6
20260505064603 13 182 3.2 12.9 0.00 0.00 0.00 81 1012.5
20260505064055 13 168 4.8 14.5 0.00 0.00 0.00 81 1012.5
20260505063557 13 183 3.2 14.5 0.00 0.00 0.00 81 1012.4
20260505063057 13 175 3.2 12.9 0.00 0.00 0.00 81 1012.4
20260505062554 13 209 3.2 11.3 0.00 0.00 0.00 80 1012.3
20260505062052 14 196 1.6 9.7 0.00 0.00 0.00 80 1012.3
20260505061604 14 184 3.2 9.7 0.00 0.00 0.00 79 1012.3
20260505061057 14 172 1.6 14.5 0.00 0.00 0.00 79 1012.3
20260505060557 14 246 1.6 14.5 0.00 0.00 0.00 79 1012.2
20260505055558 15 188 1.6 11.3 0.00 0.00 0.00 78 1012.3
20260505055056 15 206 1.6 11.3 0.00 0.00 0.00 77 1012.3
20260505054605 15 215 3.2 16.1 0.00 0.00 0.00 76 1012.2
20260505054053 15 181 4.8 16.1 0.00 0.00 0.00 76 1012.2
20260505053553 15 184 6.4 16.1 0.00 0.00 0.00 76 1012.1
20260505053110 15 174 3.2 14.5 0.00 0.00 0.00 75 1012.0
20260505052556 15 143 4.8 12.9 0.00 0.00 0.00 75 1012.1
20260505052056 16 153 4.8 12.9 0.00 0.00 0.00 75 1012.0
20260505051556 16 180 3.2 14.5 0.00 0.00 0.00 74 1012.0
20260505051054 16 234 6.4 14.5 0.00 0.00 0.00 74 1012.0
20260505050553 16 169 1.6 9.7 0.00 0.00 0.00 73 1011.9
20260505041613 18 229 3.2 8.0 0.00 0.00 0.00 70 1011.2
20260505041054 18 190 1.6 14.5 0.00 0.00 0.00 70 1011.1
20260505040553 18 229 1.6 14.5 0.00 0.00 0.00 70 1010.9
20260505040057 18 235 0.0 12.9 0.00 0.00 0.00 71 1010.8
20260505035557 18 231 1.6 12.9 0.00 0.00 0.00 71 1010.8
20260505035057 18 243 1.6 8.0 0.00 0.00 0.00 71 1010.8
20260505034601 18 261 1.6 11.3 0.00 0.00 0.00 71 1010.6
20260505034057 19 242 1.6 11.3 0.00 0.00 0.00 70 1010.4
20260505033554 19 226 3.2 8.0 0.00 0.00 0.00 71 1010.4
20260505033056 19 146 1.6 6.4 0.00 0.00 0.00 71 1010.4
20260505032557 19 267 1.6 6.4 0.00 0.00 0.00 71 1010.4
20260505032056 20 232 1.6 11.3 0.00 0.00 0.00 71 1010.4
20260505031607 20 248 0.0 14.5 0.00 0.00 0.00 71 1010.3
20260505031103 20 269 4.8 14.5 0.00 0.00 0.00 70 1010.2
20260505030556 20 0 1.6 9.7 0.00 0.00 0.00 70 1010.2
20260505030057 20 153 3.2 9.7 0.00 0.00 0.00 70 1010.0
20260505025553 20 0 1.6 9.7 0.00 0.00 0.00 70 1009.9
20260505025059 20 192 0.0 6.4 0.00 0.00 0.00 69 1009.9
20260505024555 20 187 1.6 6.4 0.00 0.00 0.00 69 1009.9
20260505024056 20 270 3.2 6.4 0.00 0.00 0.00 68 1009.9
20260505023557 21 181 0.0 6.4 0.00 0.00 0.00 68 1009.8
20260505023101 21 173 0.0 9.7 0.00 0.00 0.00 68 1009.9
20260505022554 21 0 1.6 12.9 0.00 0.00 0.00 68 1009.7
20260505022057 21 269 6.4 12.9 0.00 0.00 0.00 67 1009.7
20260505021600 21 197 3.2 14.5 0.00 0.00 0.00 67 1009.8
20260505021053 21 200 3.2 14.5 0.00 0.00 0.00 67 1009.8
20260505020553 21 220 1.6 16.1 0.00 0.00 0.00 66 1009.8
20260505020055 21 166 3.2 16.1 0.00 0.00 0.00 67 1009.8
20260505015557 21 193 1.6 16.1 0.00 0.00 0.00 66 1009.8
20260505015056 21 273 3.2 19.3 0.00 0.00 0.00 65 1009.7
20260505014556 21 138 4.8 19.3 0.00 0.00 0.00 65 1009.8
20260505014058 21 0 3.2 14.5 0.00 0.00 0.00 65 1009.8
20260505013556 22 166 1.6 9.7 0.00 0.00 0.00 64 1009.9
20260505013100 22 220 0.0 11.3 0.00 0.00 0.00 65 1010.0
20260505012554 22 184 4.8 12.9 0.00 0.00 0.00 64 1010.0
20260505012057 22 184 4.8 12.9 0.00 0.00 0.00 64 1009.9
20260505011557 22 161 1.6 12.9 0.00 0.00 0.00 63 1010.1
20260505011054 22 205 0.0 12.9 0.00 0.00 0.00 64 1010.1
20260505010553 22 256 3.2 12.9 0.00 0.00 0.00 63 1010.2
20260505010058 22 167 1.6 14.5 0.00 0.00 0.00 63 1010.2
20260505005554 21 278 4.8 16.1 0.00 0.00 0.00 65 1010.3
20260505005056 22 178 3.2 16.1 0.00 0.00 0.00 64 1010.4
20260505004556 22 265 1.6 14.5 0.00 0.00 0.00 64 1010.4
20260505004055 22 289 4.8 14.5 0.00 0.00 0.00 64 1010.4
20260505003554 22 146 4.8 12.9 0.00 0.00 0.00 63 1010.3
20260505003057 22 246 3.2 14.5 0.00 0.00 0.00 63 1010.4